Date String (YYYY-MM-DD hh:mm:ss) UTC,Instrument flags,absolute air pressure of the measurement (hPa),sample flow rate (lpm),inlet stack bypass flow (lpm),air temperature of the measurement (°C),ambient temperature measured by the external sensor (°C),aerosol sample conditioner tube jacket temperature (°C),OPC LED temperature (°C),internal box temperature (°C),relative humidity of the measurement (%),span deviation,mass concentration of particles derived from Lorenz-Mie calculation of OPC scattering (μg/m³),mass concentration of particles derived from Lorenz-Mie calculation of OPC scattering (μg/m³),mass concentration of particles derived from Lorenz-Mie calculation of OPC scattering (μg/m³)
DateTimeUTC,F1_M11,P_M11,Q1_M11,Q2_M11,T1_M11,T2_M11,T3_M11,T4_M11,T5_M11,U1_M11,ZSPAN_M11,X0_M11,X2_M11,X1_M11
2023-11-27 05:00:00,SystemResetWarning,0832.0,5.00,000.00,018.7,017.4,000.0,027.3,020.0,12.4,0000.0,0006.97,0004.22,0003.96
2023-11-27 05:01:00,SystemResetWarning,0832.0,4.99,000.00,018.7,017.4,000.0,027.3,020.0,12.4,0000.0,0006.94,0004.23,0003.98
2023-11-27 05:02:00,SystemResetWarning,0832.0,4.99,000.00,018.7,017.4,000.0,027.3,020.0,12.4,0000.0,0006.89,0004.21,0003.96
2023-11-27 05:03:00,SystemResetWarning,0832.0,5.00,000.00,018.7,017.4,000.0,027.3,020.0,12.4,0000.0,0006.89,0004.19,0003.95
2023-11-27 05:04:00,SystemResetWarning,0832.0,5.00,000.00,018.7,017.4,000.0,027.3,020.0,12.4,0000.0,0006.84,0004.18,0003.94
2023-11-27 05:05:00,SystemResetWarning,0832.0,5.00,000.00,018.7,017.3,000.0,027.3,020.0,12.4,0000.0,0006.85,0004.18,0003.95
2023-11-27 05:06:00,SystemResetWarning,0832.0,5.01,000.00,018.7,017.3,000.0,027.3,020.0,12.4,0000.0,0006.88,0004.20,0003.95
2023-11-27 05:07:00,SystemResetWarning,0832.0,5.00,000.00,018.6,017.3,000.0,027.3,020.0,12.4,0000.0,0006.61,0004.17,0003.95
2023-11-27 05:08:00,SystemResetWarning,0832.0,5.00,000.00,018.6,017.3,000.0,027.3,020.0,12.4,0000.0,0005.91,0004.13,0003.95
2023-11-27 05:09:00,SystemResetWarning,0832.0,5.00,000.00,018.6,017.3,000.0,027.3,020.0,12.4,0000.0,0006.02,0004.13,0003.96
2023-11-27 05:10:00,SystemResetWarning,0832.0,5.00,000.00,018.6,017.3,000.0,027.3,020.0,12.4,0000.0,0006.10,0004.15,0003.96
2023-11-27 05:11:00,SystemResetWarning,0832.0,4.99,000.00,018.6,017.3,000.0,027.3,020.0,12.4,0000.0,0005.99,0004.12,0003.96
2023-11-27 05:12:00,SystemResetWarning,0832.0,5.01,000.00,018.6,017.3,000.0,027.3,020.0,12.5,0000.0,0005.96,0004.09,0003.93
2023-11-27 05:13:00,SystemResetWarning,0832.0,5.00,000.00,018.7,017.2,000.0,027.2,020.2,12.4,0000.0,0006.11,0004.10,0003.93
2023-11-27 05:14:00,SystemResetWarning,0832.1,5.00,000.00,018.8,017.9,000.0,027.2,020.5,12.4,0000.0,0006.10,0004.10,0003.92
2023-11-27 05:15:00,SystemResetWarning,0832.1,5.00,000.00,018.9,018.5,000.0,027.2,020.7,12.3,0000.0,0006.03,0004.10,0003.92
2023-11-27 05:16:00,SystemResetWarning,0832.1,4.99,000.00,018.9,018.5,000.0,027.2,020.3,12.3,0000.0,0006.11,0004.11,0003.92
2023-11-27 05:17:00,SystemResetWarning,0832.1,4.99,000.00,018.8,018.4,000.0,027.2,020.0,12.3,0000.0,0006.03,0004.10,0003.92
2023-11-27 05:18:00,SystemResetWarning,0832.2,5.00,000.00,018.8,018.3,000.0,027.2,020.0,12.4,0000.0,0005.96,0004.10,0003.92
2023-11-27 05:19:00,SystemResetWarning,0832.2,5.00,000.00,018.8,018.2,000.0,027.2,020.0,12.4,0000.0,0005.95,0004.10,0003.92
2023-11-27 05:20:00,SystemResetWarning,0832.2,5.00,000.00,018.8,018.0,000.0,027.2,020.0,12.4,0000.0,0006.04,0004.10,0003.91
2023-11-27 05:21:00,SystemResetWarning,0832.2,5.00,000.00,018.7,017.9,000.0,027.2,020.0,12.4,0000.0,0006.09,0004.08,0003.90
2023-11-27 05:22:00,SystemResetWarning,0832.2,5.00,000.00,018.7,017.9,000.0,027.3,020.0,12.4,0000.0,0006.12,0004.08,0003.90
2023-11-27 05:23:00,SystemResetWarning,0832.2,5.01,000.00,018.7,017.8,000.0,027.3,020.0,12.4,0000.0,0006.24,0004.10,0003.89
2023-11-27 05:24:00,SystemResetWarning,0832.2,5.01,000.00,018.7,017.7,000.0,027.2,020.0,12.4,0000.0,0006.21,0004.10,0003.89
2023-11-27 05:25:00,SystemResetWarning,0832.2,5.00,000.00,018.7,017.6,000.0,027.2,020.0,12.4,0000.0,0006.18,0004.10,0003.90
2023-11-27 05:26:00,SystemResetWarning,0832.2,5.00,000.00,018.7,017.6,000.0,027.3,020.0,12.4,0000.0,0006.22,0004.11,0003.90
2023-11-27 05:27:00,SystemResetWarning,0832.2,5.00,000.00,018.7,017.5,000.0,027.2,020.0,12.4,0000.0,0006.16,0004.09,0003.88
2023-11-27 05:28:00,SystemResetWarning,0832.3,4.98,000.00,018.7,017.5,000.0,027.3,020.0,12.4,0000.0,0006.06,0004.06,0003.87
2023-11-27 05:29:00,SystemResetWarning,0832.3,5.00,000.00,018.7,017.5,000.0,027.3,020.0,12.4,0000.0,0005.96,0004.04,0003.86
2023-11-27 05:30:00,SystemResetWarning,0832.3,5.02,000.00,018.6,017.5,000.0,027.3,020.0,12.4,0000.0,0005.99,0004.04,0003.86
2023-11-27 05:31:00,SystemResetWarning,0832.3,5.00,000.00,018.6,017.4,000.0,027.2,020.0,12.4,0000.0,0005.83,0004.02,0003.84
2023-11-27 05:32:00,SystemResetWarning,0832.3,4.99,000.00,018.6,017.4,000.0,027.2,020.0,12.4,0000.0,0005.52,0003.99,0003.83
2023-11-27 05:33:00,SystemResetWarning,0832.3,4.99,000.00,018.6,017.4,000.0,027.2,020.0,12.4,0000.0,0005.46,0003.98,0003.82
2023-11-27 05:34:00,SystemResetWarning,0832.2,5.02,000.00,018.7,017.5,000.0,027.2,020.2,12.4,0000.0,0005.36,0003.96,0003.82
2023-11-27 05:35:00,SystemResetWarning,0832.3,5.00,000.00,018.8,018.2,000.0,027.2,020.6,12.3,0000.0,0005.16,0003.93,0003.82
2023-11-27 05:36:00,SystemResetWarning,0832.3,5.00,000.00,018.9,018.6,000.0,027.2,020.6,12.2,0000.0,0005.09,0003.91,0003.81
2023-11-27 05:37:00,SystemResetWarning,0832.3,4.99,000.00,018.9,018.6,000.0,027.1,020.2,12.3,0000.0,0005.06,0003.90,0003.81
2023-11-27 05:38:00,SystemResetWarning,0832.3,5.00,000.00,018.8,018.4,000.0,027.1,020.1,12.3,0000.0,0005.11,0003.91,0003.82
2023-11-27 05:39:00,SystemResetWarning,0832.4,5.01,000.00,018.8,018.3,000.0,027.2,020.0,12.3,0000.0,0005.15,0003.91,0003.81
2023-11-27 05:40:00,SystemResetWarning,0832.4,5.00,000.00,018.8,018.2,000.0,027.2,020.0,12.3,0000.0,0005.24,0003.93,0003.82
2023-11-27 05:41:00,SystemResetWarning,0832.4,5.00,000.00,018.7,018.1,000.0,027.2,020.0,12.4,0000.0,0005.27,0003.93,0003.82
2023-11-27 05:42:00,SystemResetWarning,0832.4,5.00,000.00,018.7,018.0,000.0,027.2,020.0,12.4,0000.0,0005.26,0003.94,0003.83
2023-11-27 05:43:00,SystemResetWarning,0832.4,5.00,000.00,018.7,017.9,000.0,027.2,020.0,12.4,0000.0,0005.30,0003.95,0003.83
2023-11-27 05:44:00,SystemResetWarning,0832.5,4.99,000.00,018.7,017.8,000.0,027.2,020.0,12.4,0000.0,0005.27,0003.95,0003.83
2023-11-27 05:45:00,SystemResetWarning,0832.4,5.00,000.00,018.7,017.7,000.0,027.3,020.0,12.4,0000.0,0005.24,0003.95,0003.83
2023-11-27 05:46:00,SystemResetWarning,0832.5,5.00,000.00,018.7,017.6,000.0,027.3,020.0,12.4,0000.0,0005.26,0003.96,0003.84
2023-11-27 05:47:00,SystemResetWarning,0832.5,5.00,000.00,018.7,017.6,000.0,027.3,020.0,12.3,0000.0,0005.32,0003.97,0003.84
2023-11-27 05:48:00,SystemResetWarning,0832.4,5.00,000.00,018.7,017.5,000.0,027.3,020.0,12.3,0000.0,0005.34,0003.96,0003.83
2023-11-27 05:49:00,SystemResetWarning,0832.4,5.00,000.00,018.7,017.5,000.0,027.3,020.0,12.4,0000.0,0005.33,0003.97,0003.83
2023-11-27 05:50:00,SystemResetWarning,0832.3,5.00,000.00,018.6,017.5,000.0,027.3,020.0,12.4,0000.0,0005.36,0003.97,0003.83
2023-11-27 05:51:00,SystemResetWarning,0832.3,5.00,000.00,018.6,017.5,000.0,027.2,020.1,12.4,0000.0,0005.28,0003.96,0003.82
2023-11-27 05:52:00,SystemResetWarning,0832.3,5.01,000.00,018.7,017.9,000.0,027.2,020.4,12.3,0000.0,0005.37,0003.94,0003.82
2023-11-27 05:53:00,SystemResetWarning,0832.4,5.00,000.00,018.9,018.7,000.0,027.2,020.8,12.2,0000.0,0005.47,0003.95,0003.82
2023-11-27 05:54:00,SystemResetWarning,0832.4,4.99,000.00,018.9,018.8,000.0,027.2,020.5,12.1,0000.0,0005.43,0003.94,0003.82
2023-11-27 05:55:00,SystemResetWarning,0832.4,4.99,000.00,018.9,018.7,000.0,027.2,020.2,12.2,0000.0,0005.45,0003.94,0003.82
2023-11-27 05:56:00,SystemResetWarning,0832.3,5.00,000.00,018.9,018.5,000.0,027.2,020.0,12.2,0000.0,0005.53,0003.96,0003.83
2023-11-27 05:57:00,SystemResetWarning,0832.4,5.01,000.00,018.8,018.3,000.0,027.2,020.0,12.3,0000.0,0005.66,0003.97,0003.82
2023-11-27 05:58:00,SystemResetWarning,0832.3,5.00,000.00,018.8,018.2,000.0,027.2,020.0,12.3,0000.0,0005.70,0003.98,0003.83
2023-11-27 05:59:00,SystemResetWarning,0832.3,5.00,000.00,018.8,018.0,000.0,027.2,020.0,12.3,0000.0,0005.74,0004.01,0003.84
